Location: Stockholm
(59.3333°N, 18.0500°E)
Time: 08:41:25
(UTC+01:00)

ISS - Visible Passes

Search period start: 25 January 2021 00:00
Search period end: 04 February 2021 00:00
Orbit: 418 x 421 km, 51.6° (Epoch: 25 January)

Date Brightness Start Highest point End Pass type
(mag) Time Alt. Az. Time Alt. Az. Time Alt. Az.
25 Jan -1.8 18:00:48 10° SSW 18:03:15 19° SSE 18:04:02 17° SSE visible
25 Jan -0.6 19:36:40 10° WSW 19:37:00 12° SW 19:37:00 12° SW visible
26 Jan -1.5 17:13:54 10° SSW 17:16:06 16° SSE 17:18:18 10° ESE visible
26 Jan -1.7 18:49:27 10° SW 18:51:35 21° SSW 18:51:35 21° SSW visible
27 Jan -1.9 18:02:16 10° SW 18:04:58 22° S 18:06:09 18° SE visible
27 Jan -0.7 19:38:37 10° WSW 19:39:07 12° SW 19:39:07 12° SW visible
28 Jan -1.7 17:15:08 10° SW 17:17:44 21° S 17:20:22 10° ESE visible
28 Jan -1.7 18:51:15 10° WSW 18:53:41 21° SSW 18:53:41 21° SSW visible
29 Jan -1.8 18:03:57 10° WSW 18:06:38 22° S 18:08:17 16° SSE visible
29 Jan -0.6 19:40:53 10° WSW 19:41:15 11° SW 19:41:15 11° SW visible
30 Jan -1.7 17:16:41 10° SW 17:19:23 22° S 17:22:07 10° SE visible
30 Jan -1.4 18:53:17 10° WSW 18:55:27 16° SSW 18:55:52 16° S visible
31 Jan -1.4 18:05:48 10° WSW 18:08:15 19° SSW 18:10:32 11° SSE visible
01 Feb -1.5 17:18:24 10° WSW 17:21:01 21° S 17:23:36 10° SE visible
01 Feb -0.8 18:56:04 10° SW 18:56:56 11° SSW 18:57:48 10° SSW visible
02 Feb -0.9 18:08:00 10° SW 18:09:45 13° SSW 18:11:30 10° S visible
03 Feb -1.0 17:20:21 10° WSW 17:22:31 16° SSW 17:24:42 10° SSE visible
